{"data":{"norad_id":63195,"intl_designator":"2025-048N","name":"STARLINK-11631 [DTC]","alt_names":[],"object_type":"PAYLOAD","status":"ACTIVE","operator":null,"country":"US","launch_date":"2025-03-13","launch_site_code":"AFETR","launch_vehicle":null,"mission":null,"orbit_class":"UNKNOWN","rcs_meters":null,"size_class":null,"mass_kg":null,"dimensions":null,"purposes":["comms"],"wikipedia_slug":null,"has_3d_model":false,"image_url":null,"decayed_at":null,"tle_current":{"epoch":"2026-09-21T00:03:09.411264Z","epoch_age_seconds":118919,"freshness":"FRESH","line1":"1 63195U 25048N   26264.00219226  .00022530  00000+0  17848-3 0  9997","line2":"2 63195  42.9985 223.0736 0001512 228.1861 131.8878 15.70856409 89236","mean_motion":15.70856409,"eccentricity":0.0001512,"inclination_deg":42.9985,"raan_deg":223.0736,"arg_perigee_deg":228.1861,"mean_anomaly_deg":131.8878,"bstar":0.00017848,"rev_number":8923,"period_min":91.669740897368,"perigee_km":355.42989270734,"apogee_km":357.46643126032,"semimajor_km":6734.5851619838,"source":"CELESTRAK","updated_at":"2026-09-22T09:00:49.796930Z"}}}